LHA5GU EGNS-EGHI

Flight info

Callsign LHA5GU
Flight time 0h 58m
Altitude 25000
Route TIMIS Q39 NOMSU Q4 WAL L151 PEPUL Y322 BUGUP
Aircraft DH8D/M-SDE1E2FGIJ1RWYZ/S

Departure

Time 2026-05-09 07:38
Airport Isle of Man Airport (EGNS)

Arrival

Time 2026-05-09 08:36
Airport Southampton Airport (EGHI)
Time Latitude Longitude Altitude Speed Heading
2026-05-09 06:56 54.08607 -4.63381 66 ft 0 kts 41°
2026-05-09 07:29 54.08604 -4.63385 66 ft 2 kts 41°
2026-05-09 07:30 54.08593 -4.63403 65 ft 2 kts 42°
2026-05-09 07:30 54.08587 -4.63413 65 ft 1 kts 79°
2026-05-09 07:30 54.08586 -4.63437 64 ft 2 kts 85°
2026-05-09 07:30 54.08584 -4.63453 64 ft 1 kts 65°
2026-05-09 07:31 54.08583 -4.63462 64 ft 1 kts 86°
2026-05-09 07:31 54.08582 -4.63465 64 ft 0 kts 86°
2026-05-09 07:33 54.08582 -4.63464 64 ft 0 kts 86°
2026-05-09 07:33 54.08581 -4.63436 64 ft 4 kts 104°
2026-05-09 07:34 54.08550 -4.63373 64 ft 10 kts 135°
2026-05-09 07:34 54.08489 -4.63340 61 ft 13 kts 199°
2026-05-09 07:34 54.08431 -4.63385 59 ft 11 kts 189°
2026-05-09 07:34 54.08365 -4.63408 56 ft 9 kts 239°
2026-05-09 07:35 54.08344 -4.63549 55 ft 14 kts 259°
2026-05-09 07:35 54.08299 -4.63726 54 ft 18 kts 241°
2026-05-09 07:35 54.08240 -4.63884 54 ft 13 kts 219°
2026-05-09 07:35 54.08158 -4.63875 52 ft 10 kts 135°
2026-05-09 07:36 54.08157 -4.63748 52 ft 11 kts 75°
2026-05-09 07:36 54.08162 -4.63714 52 ft 0 kts 76°
2026-05-09 07:37 54.08180 -4.63576 50 ft 44 kts 75°
2026-05-09 07:38 54.08306 -4.62575 42 ft 121 kts 75°
2026-05-09 07:38 54.08450 -4.60976 254 ft 143 kts 78°
2026-05-09 07:38 54.08498 -4.59358 896 ft 138 kts 85°
2026-05-09 07:38 54.08375 -4.57635 1238 ft 159 kts 89°
2026-05-09 07:39 54.08238 -4.55768 1890 ft 157 kts 89°
2026-05-09 07:39 54.08128 -4.53956 2479 ft 159 kts 90°
2026-05-09 07:39 54.07893 -4.52055 3005 ft 167 kts 103°
2026-05-09 07:39 54.07541 -4.50264 3669 ft 164 kts 106°
2026-05-09 07:40 54.07130 -4.48408 4196 ft 170 kts 108°
2026-05-09 07:40 54.06479 -4.46729 4620 ft 185 kts 141°
2026-05-09 07:40 54.05230 -4.45883 4963 ft 199 kts 166°
2026-05-09 07:40 54.03889 -4.45398 5581 ft 201 kts 169°
2026-05-09 07:41 54.02510 -4.44981 6234 ft 202 kts 169°
2026-05-09 07:41 54.01150 -4.44552 6880 ft 202 kts 169°
2026-05-09 07:41 53.99773 -4.44104 7492 ft 197 kts 169°
2026-05-09 07:41 53.98432 -4.43645 7600 ft 201 kts 169°
2026-05-09 07:42 53.97043 -4.43165 7718 ft 204 kts 169°
2026-05-09 07:42 53.95662 -4.42689 7858 ft 205 kts 169°
2026-05-09 07:42 53.94259 -4.42203 8012 ft 205 kts 169°
2026-05-09 07:42 53.92842 -4.41719 8469 ft 211 kts 169°
2026-05-09 07:43 53.91430 -4.41240 9219 ft 208 kts 169°
2026-05-09 07:43 53.90030 -4.40759 9847 ft 210 kts 169°
2026-05-09 07:43 53.88620 -4.40089 10456 ft 214 kts 153°
2026-05-09 07:43 53.87489 -4.38470 11028 ft 219 kts 135°
2026-05-09 07:44 53.86369 -4.36489 11173 ft 246 kts 134°
2026-05-09 07:44 53.85217 -4.34271 11543 ft 258 kts 131°
2026-05-09 07:44 53.84072 -4.31891 12094 ft 263 kts 130°
2026-05-09 07:44 53.82958 -4.29467 12695 ft 266 kts 129°
2026-05-09 07:45 53.81837 -4.26952 13266 ft 269 kts 129°
2026-05-09 07:45 53.80743 -4.24437 13843 ft 268 kts 128°
2026-05-09 07:45 53.79636 -4.21851 14160 ft 273 kts 128°
2026-05-09 07:45 53.78536 -4.19259 14526 ft 276 kts 128°
2026-05-09 07:46 53.77417 -4.16600 14895 ft 278 kts 128°
2026-05-09 07:46 53.76306 -4.13948 15254 ft 282 kts 128°
2026-05-09 07:46 53.75169 -4.11222 15642 ft 284 kts 128°
2026-05-09 07:46 53.74042 -4.08515 16003 ft 287 kts 128°
2026-05-09 07:47 53.72887 -4.05738 16387 ft 289 kts 128°
2026-05-09 07:47 53.71741 -4.02978 16747 ft 292 kts 128°
2026-05-09 07:47 53.70564 -4.00145 17121 ft 295 kts 128°
2026-05-09 07:47 53.69398 -3.97337 17529 ft 297 kts 128°
2026-05-09 07:48 53.68200 -3.94454 17853 ft 301 kts 128°
2026-05-09 07:48 53.67009 -3.91589 18242 ft 303 kts 128°
2026-05-09 07:48 53.65789 -3.88659 18607 ft 305 kts 128°
2026-05-09 07:48 53.64578 -3.85754 18979 ft 307 kts 128°
2026-05-09 07:49 53.63347 -3.82800 19353 ft 308 kts 128°
2026-05-09 07:49 53.62129 -3.79881 19720 ft 308 kts 129°
2026-05-09 07:49 53.60891 -3.76917 20082 ft 309 kts 129°
2026-05-09 07:49 53.59668 -3.73994 20412 ft 310 kts 129°
2026-05-09 07:50 53.58422 -3.71019 20719 ft 311 kts 129°
2026-05-09 07:50 53.57187 -3.68074 21043 ft 311 kts 129°
2026-05-09 07:50 53.55933 -3.65085 21323 ft 312 kts 129°
2026-05-09 07:50 53.54694 -3.62135 21608 ft 313 kts 129°
2026-05-09 07:51 53.53431 -3.59133 21874 ft 314 kts 129°
2026-05-09 07:51 53.52184 -3.56174 22150 ft 314 kts 129°
2026-05-09 07:51 53.50917 -3.53169 22394 ft 315 kts 129°
2026-05-09 07:51 53.49663 -3.50198 22627 ft 316 kts 129°
2026-05-09 07:52 53.48385 -3.47175 22847 ft 317 kts 129°
2026-05-09 07:52 53.47114 -3.44144 23091 ft 318 kts 128°
2026-05-09 07:52 53.46095 -3.40868 23283 ft 323 kts 118°
2026-05-09 07:52 53.45215 -3.37376 23467 ft 325 kts 117°
2026-05-09 07:53 53.44339 -3.33877 23634 ft 326 kts 118°
2026-05-09 07:53 53.43464 -3.30389 23858 ft 326 kts 118°
2026-05-09 07:53 53.42592 -3.26932 24068 ft 325 kts 118°
2026-05-09 07:53 53.41710 -3.23445 24279 ft 324 kts 118°
2026-05-09 07:54 53.40820 -3.19948 24416 ft 326 kts 118°
2026-05-09 07:54 53.39941 -3.16501 24596 ft 326 kts 118°
2026-05-09 07:54 53.38791 -3.13309 24689 ft 316 kts 139°
2026-05-09 07:54 53.37085 -3.11061 24834 ft 310 kts 151°
2026-05-09 07:55 53.35323 -3.09041 24957 ft 311 kts 151°
2026-05-09 07:55 53.33527 -3.06994 25086 ft 311 kts 151°
2026-05-09 07:55 53.31746 -3.04969 25132 ft 315 kts 150°
2026-05-09 07:55 53.29917 -3.02892 25142 ft 319 kts 150°
2026-05-09 07:56 53.28094 -3.00820 25143 ft 322 kts 150°
2026-05-09 07:56 53.26225 -2.98698 25144 ft 325 kts 150°
2026-05-09 07:56 53.24369 -2.96591 25146 ft 327 kts 151°
2026-05-09 07:56 53.22474 -2.94441 25146 ft 329 kts 150°
2026-05-09 07:57 53.20595 -2.92312 25151 ft 330 kts 150°
2026-05-09 07:57 53.18681 -2.90144 25162 ft 332 kts 150°
2026-05-09 07:57 53.16780 -2.87994 25165 ft 333 kts 150°
2026-05-09 07:57 53.14850 -2.85814 25172 ft 334 kts 150°
2026-05-09 07:58 53.12947 -2.83667 25160 ft 335 kts 150°
2026-05-09 07:58 53.11006 -2.81478 25137 ft 335 kts 150°
2026-05-09 07:58 53.09096 -2.79327 25131 ft 335 kts 150°
2026-05-09 07:58 53.07159 -2.77146 25128 ft 335 kts 150°
2026-05-09 07:59 53.05251 -2.75003 25127 ft 334 kts 150°
2026-05-09 07:59 53.03316 -2.72831 25133 ft 334 kts 150°
2026-05-09 07:59 53.01407 -2.70691 25133 ft 335 kts 150°
2026-05-09 07:59 52.99467 -2.68518 25135 ft 335 kts 150°
2026-05-09 08:00 52.97557 -2.66381 25139 ft 335 kts 150°
2026-05-09 08:00 52.95616 -2.64213 25137 ft 335 kts 150°
2026-05-09 08:00 52.93701 -2.62075 25133 ft 335 kts 150°
2026-05-09 08:00 52.91756 -2.59905 25135 ft 335 kts 150°
2026-05-09 08:01 52.89840 -2.57772 25139 ft 335 kts 150°
2026-05-09 08:01 52.87894 -2.55607 25134 ft 335 kts 150°
2026-05-09 08:01 52.85963 -2.53459 25128 ft 330 kts 150°
2026-05-09 08:01 52.84100 -2.51383 25131 ft 323 kts 150°
2026-05-09 08:02 52.82243 -2.49317 25129 ft 318 kts 149°
2026-05-09 08:02 52.80442 -2.47319 25132 ft 313 kts 149°
2026-05-09 08:02 52.78638 -2.45321 25133 ft 310 kts 150°
2026-05-09 08:02 52.76872 -2.43370 25130 ft 308 kts 150°
2026-05-09 08:03 52.75102 -2.41417 25130 ft 308 kts 150°
2026-05-09 08:03 52.73310 -2.39444 25131 ft 308 kts 150°
2026-05-09 08:03 52.71520 -2.37473 25134 ft 309 kts 150°
2026-05-09 08:03 52.69752 -2.35528 25130 ft 309 kts 150°
2026-05-09 08:04 52.67961 -2.33559 25129 ft 309 kts 150°
2026-05-09 08:04 52.66198 -2.31622 25131 ft 308 kts 150°
2026-05-09 08:04 52.64402 -2.29651 25127 ft 308 kts 150°
2026-05-09 08:04 52.62637 -2.27715 25128 ft 308 kts 150°
2026-05-09 08:05 52.60846 -2.25753 25130 ft 308 kts 150°
2026-05-09 08:05 52.59082 -2.23822 25132 ft 308 kts 150°
2026-05-09 08:05 52.57293 -2.21866 25129 ft 307 kts 150°
2026-05-09 08:05 52.55533 -2.19943 25131 ft 307 kts 150°
2026-05-09 08:06 52.53743 -2.17991 25131 ft 307 kts 150°
2026-05-09 08:06 52.51960 -2.16046 25134 ft 307 kts 150°
2026-05-09 08:06 52.50188 -2.14116 25134 ft 306 kts 150°
2026-05-09 08:06 52.48420 -2.12192 25137 ft 306 kts 150°
2026-05-09 08:07 52.46636 -2.10253 25134 ft 306 kts 150°
2026-05-09 08:07 52.44879 -2.08345 25136 ft 306 kts 150°
2026-05-09 08:07 52.43095 -2.06409 25139 ft 306 kts 150°
2026-05-09 08:07 52.41336 -2.04503 25132 ft 306 kts 150°
2026-05-09 08:08 52.39550 -2.02570 25134 ft 306 kts 150°
2026-05-09 08:08 52.37791 -2.00665 25131 ft 306 kts 150°
2026-05-09 08:08 52.35993 -1.98721 25103 ft 307 kts 150°
2026-05-09 08:08 52.34225 -1.96814 24863 ft 307 kts 150°
2026-05-09 08:09 52.32435 -1.94881 24607 ft 307 kts 149°
2026-05-09 08:09 52.30671 -1.92978 24350 ft 306 kts 149°
2026-05-09 08:09 52.28885 -1.91053 24090 ft 305 kts 149°
2026-05-09 08:09 52.27128 -1.89178 23835 ft 304 kts 151°
2026-05-09 08:10 52.25243 -1.87621 23577 ft 302 kts 159°
2026-05-09 08:10 52.23335 -1.86295 23328 ft 301 kts 159°
2026-05-09 08:10 52.21401 -1.84961 23075 ft 301 kts 159°
2026-05-09 08:10 52.19466 -1.83625 22785 ft 302 kts 159°
2026-05-09 08:11 52.17549 -1.82300 22349 ft 304 kts 159°
2026-05-09 08:11 52.15593 -1.80945 21894 ft 306 kts 159°
2026-05-09 08:11 52.13654 -1.79602 21446 ft 307 kts 159°
2026-05-09 08:11 52.11680 -1.78234 20990 ft 308 kts 158°
2026-05-09 08:12 52.07713 -1.75488 20000 ft 313 kts 158°
2026-05-09 08:12 52.05727 -1.74112 19505 ft 315 kts 158°
2026-05-09 08:12 52.03701 -1.72711 19002 ft 316 kts 158°
2026-05-09 08:13 52.01696 -1.71326 18497 ft 317 kts 158°
2026-05-09 08:13 51.99658 -1.69918 17982 ft 318 kts 158°
2026-05-09 08:13 51.97636 -1.68523 17494 ft 319 kts 158°
2026-05-09 08:13 51.95589 -1.67112 16990 ft 319 kts 157°
2026-05-09 08:14 51.93572 -1.65722 16494 ft 319 kts 157°
2026-05-09 08:14 51.91527 -1.64314 15991 ft 318 kts 157°
2026-05-09 08:14 51.89512 -1.62929 15498 ft 318 kts 158°
2026-05-09 08:14 51.87497 -1.61473 15207 ft 314 kts 153°
2026-05-09 08:15 51.85626 -1.59751 15141 ft 310 kts 149°
2026-05-09 08:15 51.83782 -1.57964 15135 ft 305 kts 149°
2026-05-09 08:15 51.81983 -1.56222 14936 ft 307 kts 149°
2026-05-09 08:15 51.80113 -1.54418 14506 ft 316 kts 149°
2026-05-09 08:16 51.78236 -1.52609 14071 ft 320 kts 149°
2026-05-09 08:16 51.76319 -1.50759 13623 ft 320 kts 149°
2026-05-09 08:16 51.74428 -1.48938 13179 ft 320 kts 149°
2026-05-09 08:16 51.72510 -1.47095 12734 ft 320 kts 149°
2026-05-09 08:17 51.70625 -1.45286 12289 ft 319 kts 149°
2026-05-09 08:17 51.68658 -1.43627 11839 ft 318 kts 156°
2026-05-09 08:17 51.66619 -1.42388 11394 ft 316 kts 159°
2026-05-09 08:17 51.64544 -1.41179 11183 ft 315 kts 159°
2026-05-09 08:18 51.62506 -1.39997 11133 ft 313 kts 159°
2026-05-09 08:18 51.60450 -1.38802 11120 ft 311 kts 159°
2026-05-09 08:18 51.58443 -1.37632 11124 ft 310 kts 159°
2026-05-09 08:18 51.56403 -1.36441 11126 ft 310 kts 159°
2026-05-09 08:19 51.54394 -1.35268 11113 ft 310 kts 159°
2026-05-09 08:19 51.52356 -1.34078 11110 ft 310 kts 160°
2026-05-09 08:19 51.50344 -1.32903 11111 ft 311 kts 160°
2026-05-09 08:19 51.48294 -1.31707 11105 ft 312 kts 160°
2026-05-09 08:20 51.46241 -1.30509 11100 ft 313 kts 160°
2026-05-09 08:20 51.44212 -1.29325 11100 ft 314 kts 160°
2026-05-09 08:20 51.42150 -1.28122 11103 ft 314 kts 160°
2026-05-09 08:20 51.40119 -1.26938 11100 ft 314 kts 160°
2026-05-09 08:21 51.38052 -1.25736 11096 ft 314 kts 160°
2026-05-09 08:21 51.36017 -1.24551 11093 ft 315 kts 160°
2026-05-09 08:21 51.33924 -1.23453 11015 ft 317 kts 166°
2026-05-09 08:21 51.31751 -1.23290 10629 ft 316 kts 182°
2026-05-09 08:22 51.29563 -1.23485 10225 ft 313 kts 183°
2026-05-09 08:22 51.27445 -1.23676 9822 ft 301 kts 182°
2026-05-09 08:22 51.25389 -1.23856 9397 ft 288 kts 182°
2026-05-09 08:22 51.23446 -1.24025 8984 ft 277 kts 182°
2026-05-09 08:23 51.21547 -1.24187 8563 ft 268 kts 181°
2026-05-09 08:23 51.19729 -1.24383 8150 ft 263 kts 185°
2026-05-09 08:23 51.17952 -1.24998 7742 ft 259 kts 193°
2026-05-09 08:23 51.16248 -1.25733 7343 ft 255 kts 193°
2026-05-09 08:24 51.14531 -1.26477 6956 ft 254 kts 193°
2026-05-09 08:24 51.12823 -1.27215 6570 ft 253 kts 192°
2026-05-09 08:24 51.11146 -1.27933 6196 ft 252 kts 192°
2026-05-09 08:24 51.09448 -1.28657 5819 ft 251 kts 192°
2026-05-09 08:25 51.07775 -1.29367 5443 ft 250 kts 192°
2026-05-09 08:25 51.06088 -1.30080 5063 ft 249 kts 192°
2026-05-09 08:25 51.04429 -1.30780 4691 ft 249 kts 192°
2026-05-09 08:25 51.02753 -1.31486 4312 ft 248 kts 192°
2026-05-09 08:26 51.01108 -1.32177 3940 ft 247 kts 191°
2026-05-09 08:26 50.99444 -1.32876 3562 ft 246 kts 191°
2026-05-09 08:26 50.97806 -1.33562 3197 ft 245 kts 191°
2026-05-09 08:26 50.96181 -1.34244 3043 ft 241 kts 191°
2026-05-09 08:27 50.94561 -1.34905 2988 ft 235 kts 189°
2026-05-09 08:27 50.92994 -1.35440 2970 ft 229 kts 188°
2026-05-09 08:27 50.91441 -1.35953 2965 ft 224 kts 188°
2026-05-09 08:27 50.89941 -1.36450 2962 ft 219 kts 188°
2026-05-09 08:28 50.88475 -1.37080 2949 ft 218 kts 203°
2026-05-09 08:28 50.87463 -1.38810 2954 ft 216 kts 246°
2026-05-09 08:28 50.86852 -1.40896 2947 ft 208 kts 229°
2026-05-09 08:28 50.85731 -1.42142 2950 ft 190 kts 191°
2026-05-09 08:29 50.84479 -1.42455 2967 ft 181 kts 182°
2026-05-09 08:29 50.83225 -1.42712 2927 ft 183 kts 182°
2026-05-09 08:29 50.81980 -1.42958 2624 ft 182 kts 182°
2026-05-09 08:29 50.80706 -1.43209 2316 ft 186 kts 182°
2026-05-09 08:30 50.79400 -1.43461 1987 ft 190 kts 182°
2026-05-09 08:30 50.78156 -1.44060 1790 ft 190 kts 211°
2026-05-09 08:30 50.77391 -1.45698 1709 ft 184 kts 255°
2026-05-09 08:30 50.77468 -1.47604 1679 ft 175 kts 299°
2026-05-09 08:31 50.78285 -1.48861 1665 ft 158 kts 346°
2026-05-09 08:31 50.79330 -1.49158 1673 ft 154 kts 358°
2026-05-09 08:31 50.80412 -1.49421 1681 ft 160 kts 357°
2026-05-09 08:31 50.81521 -1.49682 1681 ft 165 kts 357°
2026-05-09 08:32 50.82687 -1.49950 1679 ft 171 kts 358°
2026-05-09 08:32 50.83874 -1.50221 1677 ft 176 kts 357°
2026-05-09 08:32 50.86336 -1.50757 1672 ft 181 kts
2026-05-09 08:33 50.87501 -1.50255 1660 ft 171 kts 39°
2026-05-09 08:33 50.88109 -1.48730 1664 ft 164 kts 79°
2026-05-09 08:33 50.88237 -1.46960 1670 ft 163 kts 83°
2026-05-09 08:33 50.88377 -1.45164 1669 ft 164 kts 83°
2026-05-09 08:34 50.88510 -1.43388 1661 ft 165 kts 83°
2026-05-09 08:34 50.88669 -1.41580 1539 ft 163 kts 77°
2026-05-09 08:34 50.89232 -1.40125 1360 ft 153 kts 51°
2026-05-09 08:34 50.90018 -1.39061 1179 ft 144 kts 39°
2026-05-09 08:35 50.90803 -1.38193 913 ft 138 kts 28°
2026-05-09 08:35 50.91683 -1.37582 513 ft 131 kts 24°
2026-05-09 08:35 50.92519 -1.37071 346 ft 128 kts 23°
2026-05-09 08:35 50.93353 -1.36612 217 ft 124 kts 25°
2026-05-09 08:36 50.94171 -1.36145 107 ft 122 kts 21°
2026-05-09 08:36 50.94947 -1.35721 45 ft 105 kts 19°
2026-05-09 08:36 50.95446 -1.35447 43 ft 49 kts 17°
2026-05-09 08:36 50.95653 -1.35326 46 ft 18 kts 17°
2026-05-09 08:37 50.95759 -1.35268 45 ft 14 kts 27°
2026-05-09 08:37 50.95806 -1.35231 46 ft 2 kts 348°
2026-05-09 08:37 50.95811 -1.35259 46 ft 7 kts 220°
2026-05-09 08:37 50.95785 -1.35262 46 ft 5 kts 190°
2026-05-09 08:38 50.95725 -1.35288 46 ft 11 kts 198°
2026-05-09 08:38 50.95633 -1.35340 46 ft 16 kts 200°
2026-05-09 08:38 50.95506 -1.35414 43 ft 22 kts 196°
2026-05-09 08:38 50.95358 -1.35491 43 ft 22 kts 200°
2026-05-09 08:39 50.95211 -1.35571 43 ft 22 kts 198°
2026-05-09 08:39 50.95068 -1.35658 45 ft 17 kts 201°
2026-05-09 08:39 50.95019 -1.35719 46 ft 8 kts 266°
2026-05-09 08:39 50.95038 -1.35810 47 ft 7 kts 291°
2026-05-09 08:40 50.95053 -1.35906 46 ft 10 kts 277°
2026-05-09 08:40 50.95069 -1.35984 47 ft 0 kts 292°
2026-05-09 08:40 50.95071 -1.35992 47 ft 0 kts 290°
2026-05-09 08:42 50.95071 -1.35993 47 ft 0 kts 290°
2026-05-09 08:43 50.95072 -1.35998 47 ft 0 kts 289°